[[{"header":{"parameterUnit":"m.s-1","parameterCategory":1,"la1":30.2991,"la2":30.254,"lo1":-89.0895,"lo2":-89.0444,"dy":0.0017,"dx":0.0017,"nx":28,"ny":28,"refTime":"2025-11-15T03:00:00:Z","depth":0,"parameterNumber":2,"parameterNumberName":"U-component_of_WINDS"},"data":[0,0,0,0,0,0,0,0,0,0,0,0,0,0,0,0,0,0,0,0,0,0,0,0,0,0,0,0,0,0,0,0,0,0,0,0,0,0,0,0,0,0,0,0,0,0,0,0,0,0,0,0,0,0,0,0,0,0,-0.0148,-0.0148,0,-0.0108,-0.0108,-0.0107,-0.0113,-0.0114,-0.0115,-0.0115,-0.0078,-0.0076,-0.0074,0,0,0,0,0,0,0,0,0,0,0,0,0,-0.0233,-0.0231,-0.0148,-0.0147,-0.0147,-0.0108,-0.0108,-0.0107,-0.0113,-0.0114,-0.0115,-0.0116,-0.0078,-0.0076,-0.0074,0,0,0,0,0,0,0,0,0,0,0,0,0,-0.0195,-0.0231,-0.0148,-0.0145,-0.0145,-0.0108,-0.0108,-0.0107,-0.0113,-0.0114,-0.0115,-0.0116,-0.0079,-0.0076,-0.0074,-0.0039,0,0,-0.0067,-0.0065,0,0,0,0,0,0,0,0,-0.0197,-0.0192,-0.0146,-0.0145,-0.0145,-0.0117,-0.0124,-0.0084,-0.0113,-0.0125,-0.0115,-0.0116,-0.009,-0.0087,-0.0077,-0.0037,-0.0035,-0.0066,-0.0065,-0.0064,-0.0063,0,0,0,0,0,0,0,-0.0199,-0.0193,-0.0132,-0.0146,-0.0145,-0.0147,-0.0143,-0.0116,-0.0103,-0.0124,-0.0124,-0.0119,-0.009,-0.0079,-0.0076,-0.0035,-0.0066,-0.0064,-0.0063,-0.0062,0.0036,0.0037,0,0,0,0,0,0,-0.0202,-0.0196,-0.0134,-0.0131,-0.0174,-0.0145,-0.014,-0.0125,-0.0103,-0.01,-0.0119,-0.012,-0.0083,-0.0079,-0.0075,-0.0032,-0.0064,-0.0062,-0.006,0.0035,0.0037,0.0038,0,0,0,0,0,0,-0.0204,-0.0197,-0.0135,-0.0163,-0.0156,-0.0142,-0.0125,-0.0123,-0.0113,-0.0099,-0.0097,-0.011,-0.0084,-0.0078,-0.0047,-0.003,-0.006,-0.0058,0.0034,0.0036,0.0037,0.0055,0,0,0,0,0,0,-0.0207,-0.0197,-0.0183,-0.0163,-0.0154,-0.0107,-0.0124,-0.0122,-0.0108,-0.011,-0.009,-0.0088,-0.0084,-0.0051,-0.0045,-0.0028,-0.0056,0.0032,0.0035,0.0037,0.0053,0.0057,0.0061,0,0,0,0,0,-0.021,-0.0181,-0.0182,-0.0175,-0.0136,-0.0106,-0.0101,-0.0096,-0.0107,-0.0093,-0.0084,-0.0089,-0.0033,-0.0048,-0.0041,-0.0023,0.0031,0.0034,0.0037,0.0051,0.0056,0.0061,0,0,0,0,0,0,-0.0201,-0.0178,-0.018,-0.0143,-0.0126,-0.0107,-0.0089,-0.0091,-0.0072,-0.0074,-0.007,-0.0066,-0.0034,-0.0026,-0.0042,0.0013,-0.0003,0.0001,0.0006,0.0011,0.0015,0.0013,-0.0054,0,0,0,0,0,-0.0194,-0.0171,-0.0153,-0.0122,-0.0114,-0.0103,-0.009,-0.0088,-0.0071,-0.0064,-0.0052,-0.0037,-0.0016,-0.0002,0.0018,0.0054,0.0058,0.007,0.0073,0.0077,0.008,0.0101,0.0106,0.0046,0.0046,0.0046,0,0,-0.0181,-0.0166,-0.0152,-0.012,-0.0107,-0.0084,-0.0097,-0.0072,-0.0055,-0.0061,-0.003,-0.0021,-0.0003,0.0031,0.0046,0.0039,0.0098,0.008,0.0082,0.0084,0.0104,0.0109,0.0114,0.0048,0.0048,0.0047,0,0,-0.0145,-0.0131,-0.0103,-0.009,-0.0069,-0.0062,-0.0055,-0.0036,-0.003,0.0001,-0.0002,0.0017,0.0053,0.0067,0.0078,0.0119,0.0116,0.0125,0.0146,0.0166,0.017,0.0175,0.019,0.0196,0.0129,0.0129,0.0129,0,-0.0131,-0.0095,-0.0089,-0.0063,-0.005,-0.0052,-0.0025,-0.0012,0.0013,0.0023,0.0014,0.006,0.0071,0.0109,0.0119,0.0128,0.0135,0.0124,0.0169,0.0174,0.0178,0.0193,0.0198,0.013,0.013,0.013,0.013,0,-0.0079,-0.0054,-0.0035,-0.0008,0.0008,0.0034,0.0043,0.0058,0.0059,0.0067,0.0098,0.0112,0.0135,0.0144,0.0144,0.0181,0.0176,0.0169,0.0153,0.0185,0.0199,0.0204,0.0132,0.0131,0.0131,0.0131,0,0,-0.0035,-0.0005,0.0002,0.0014,0.0037,0.0056,0.0081,0.0105,0.0119,0.0136,0.0158,0.0188,0.0182,0.0195,0.0196,0.0213,0.0247,0.0204,0.0204,0.0212,0.0289,0.0296,0.0302,0.0244,0.0245,0.0246,0.0288,0,0.0004,0.0052,0.0057,0.0099,0.0123,0.012,0.0143,0.0159,0.0167,0.0187,0.0194,0.0217,0.0205,0.0213,0.023,0.0239,0.0262,0.0236,0.0264,0.0265,0.0261,0.0309,0.0316,0.0355,0.0293,0.0294,0.0295,0,0.0056,0.0077,0.0122,0.0142,0.0152,0.0173,0.0195,0.0215,0.0232,0.0237,0.0251,0.0251,0.0277,0.026,0.0296,0.0278,0.029,0.0296,0.0298,0.0301,0.0283,0.0315,0.0368,0.0374,0.0303,0.0303,0.0302,0,0.0085,0.0124,0.0156,0.0166,0.019,0.0205,0.0215,0.0232,0.0247,0.0266,0.0275,0.0296,0.0308,0.0324,0.033,0.0317,0.0366,0.0349,0.037,0.037,0.0381,0.0381,0.0438,0.0387,0.0387,0.0387,0.0387,0,0.0128,0.0156,0.0169,0.0189,0.022,0.0226,0.0256,0.0265,0.028,0.0302,0.03,0.0319,0.0325,0.0345,0.0349,0.0379,0.0383,0.0388,0.0389,0.0389,0.0388,0.0397,0.0395,0.0388,0.0388,0.0388,0.0387,0,0.0166,0.0175,0.0211,0.0231,0.0237,0.0259,0.0276,0.0295,0.0302,0.0329,0.0335,0.0347,0.0371,0.0378,0.0405,0.0408,0.0443,0.0441,0.0438,0.0438,0.0459,0.0458,0.0525,0.0534,0.0476,0.0477,0.0477,0,0.0193,0.0215,0.0238,0.0253,0.0265,0.0288,0.0303,0.0309,0.0325,0.0347,0.0363,0.0387,0.0407,0.0445,0.0455,0.0477,0.0476,0.0498,0.0479,0.0478,0.0477,0.0476,0.0479,0.0501,0.0502,0.0502,0.0503,0,0.0242,0.0246,0.0268,0.0293,0.0311,0.033,0.0348,0.036,0.0369,0.0386,0.0412,0.0427,0.0457,0.048,0.0502,0.0512,0.0509,0.0509,0.0515,0.0516,0.0513,0.0516,0.0449,0.0507,0.0507,0.0507,0.0506,0.0506,0.0276,0.0295,0.0315,0.034,0.0355,0.0373,0.0392,0.0402,0.0424,0.045,0.0451,0.0479,0.0496,0.0526,0.0537,0.0558,0.0551,0.056,0.0562,0.0564,0.0567,0.0509,0.0561,0.0561,0.0561,0.0561,0.0561,0,0.0325,0.0338,0.0361,0.0388,0.0408,0.0404,0.0424,0.0441,0.0466,0.0483,0.0502,0.0532,0.0555,0.0567,0.059,0.0605,0.0604,0.061,0.061,0.0612,0.0571,0.0564,0.0611,0.0611,0.0611,0.0611,0.0611,0.0611,0.0353,0.0386,0.0393,0.0433,0.0446,0.0474,0.0486,0.0502,0.0516,0.0549,0.0569,0.0577,0.0592,0.0616,0.0637,0.064,0.0649,0.0657,0.0659,0.062,0.0615,0.061,0.0604,0.0658,0.0658,0.0699,0.0699,0.07]},{"header":{"parameterUnit":"m.s-1","parameterCategory":1,"la1":30.2991,"la2":30.254,"lo1":-89.0895,"lo2":-89.0444,"dy":0.0017,"dx":0.0017,"nx":28,"ny":28,"refTime":"2025-11-15T03:00:00:Z","depth":0,"parameterNumber":3,"parameterNumberName":"V-component_of_WINDS"},"data":[0,0,0,0,0,0,0,0,0,0,0,0,0,0,0,0,0,0,0,0,0,0,0,0,0,0,0,0,0,0,0,0,0,0,0,0,0,0,0,0,0,0,0,0,0,0,0,0,0,0,0,0,0,0,0,0,0,0,2.6217,2.6216,0,2.6201,2.6201,2.62,2.6177,2.6177,2.6176,2.6176,2.616,2.6159,2.6159,0,0,0,0,0,0,0,0,0,0,0,0,0,2.6227,2.6227,2.6217,2.6216,2.6216,2.6201,2.62,2.62,2.6177,2.6177,2.6176,2.6176,2.616,2.6159,2.6159,0,0,0,0,0,0,0,0,0,0,0,0,0,2.6218,2.6227,2.6217,2.6203,2.6202,2.6201,2.62,2.62,2.6177,2.6177,2.6176,2.6176,2.616,2.6159,2.6159,2.6171,0,0,2.6159,2.6159,0,0,0,0,0,0,0,0,2.6219,2.6218,2.6205,2.6204,2.6202,2.619,2.6198,2.619,2.6178,2.6187,2.6176,2.6175,2.617,2.6169,2.6168,2.617,2.6169,2.6159,2.6159,2.6159,2.6159,0,0,0,0,0,0,0,2.6219,2.6218,2.621,2.6205,2.6203,2.6197,2.6196,2.6197,2.6182,2.6186,2.6184,2.6182,2.6169,2.6168,2.6167,2.6169,2.6159,2.6159,2.6159,2.6159,2.618,2.6181,0,0,0,0,0,0,2.6222,2.6219,2.6211,2.621,2.6209,2.6198,2.6196,2.6195,2.6182,2.6179,2.6183,2.6181,2.6168,2.6167,2.6166,2.6179,2.6159,2.6159,2.6159,2.618,2.618,2.6181,0,0,0,0,0,0,2.6222,2.6221,2.6211,2.6214,2.6212,2.6198,2.6198,2.6195,2.6193,2.618,2.6177,2.6184,2.6168,2.6166,2.617,2.6178,2.6159,2.6159,2.6179,2.618,2.6181,2.6205,0,0,0,0,0,0,2.6223,2.6222,2.6226,2.6214,2.6212,2.6215,2.6198,2.6195,2.6193,2.6191,2.618,2.6178,2.6167,2.617,2.617,2.6178,2.6159,2.6178,2.6179,2.618,2.6203,2.6206,2.6209,0,0,0,0,0,2.6223,2.6233,2.6226,2.6225,2.6217,2.6216,2.6215,2.6203,2.6194,2.6198,2.6189,2.6178,2.6177,2.6171,2.617,2.6178,2.6177,2.6179,2.618,2.6202,2.6206,2.6209,0,0,0,0,0,0,2.6246,2.6231,2.6224,2.623,2.6225,2.6212,2.6217,2.6207,2.6204,2.6202,2.6187,2.6184,2.619,2.6184,2.6177,2.6188,2.6176,2.6177,2.6192,2.6196,2.6199,2.62,2.6159,0,0,0,0,0,2.6252,2.6252,2.6239,2.6246,2.6244,2.6231,2.623,2.6221,2.6215,2.6212,2.6204,2.6198,2.6196,2.6196,2.6193,2.6202,2.6199,2.6207,2.621,2.6213,2.6214,2.6218,2.6222,2.6186,2.6186,2.6186,0,0,2.6264,2.6256,2.6257,2.6251,2.6246,2.6246,2.6229,2.6231,2.6231,2.6212,2.6215,2.6209,2.6201,2.6207,2.621,2.6203,2.6223,2.6214,2.6216,2.6217,2.622,2.6224,2.6227,2.6187,2.6186,2.6186,0,0,2.6287,2.6281,2.6286,2.6281,2.6273,2.6264,2.6266,2.6255,2.625,2.6252,2.6238,2.6239,2.6236,2.6231,2.6229,2.6249,2.6239,2.6249,2.6265,2.6269,2.6272,2.6275,2.6283,2.6286,2.6251,2.6251,2.6251,0,2.6303,2.6304,2.629,2.6293,2.629,2.6273,2.6279,2.6274,2.6266,2.6265,2.6257,2.6254,2.6248,2.6253,2.6258,2.6256,2.6257,2.6251,2.6273,2.6275,2.6277,2.6285,2.6288,2.6252,2.6252,2.6252,2.6251,0,2.6324,2.6325,2.633,2.6323,2.6321,2.6325,2.6312,2.6312,2.6303,2.6295,2.6298,2.6289,2.6285,2.6286,2.6277,2.629,2.6286,2.6276,2.6263,2.6282,2.6289,2.6292,2.6254,2.6253,2.6253,2.6253,0,0,2.6361,2.6346,2.6349,2.6345,2.6335,2.6335,2.6338,2.6334,2.6335,2.6329,2.6332,2.633,2.6321,2.6318,2.6308,2.6312,2.633,2.6302,2.6301,2.6308,2.6344,2.6352,2.6355,2.6323,2.6323,2.6323,2.6344,0,2.6383,2.6387,2.6375,2.6383,2.6383,2.6367,2.637,2.6364,2.6356,2.6356,2.6347,2.6347,2.6334,2.6332,2.6335,2.6327,2.6337,2.6325,2.6325,2.6325,2.6328,2.6358,2.6367,2.6387,2.6347,2.6347,2.6348,0,2.6408,2.6404,2.6412,2.6402,2.6401,2.6404,2.64,2.6399,2.6392,2.6386,2.6383,2.6372,2.6374,2.6361,2.6364,2.6357,2.6356,2.6352,2.6352,2.6352,2.6338,2.636,2.6393,2.6397,2.6351,2.6351,2.6351,0,2.6435,2.6432,2.6436,2.6434,2.6421,2.6424,2.6419,2.6411,2.641,2.6406,2.6404,2.6401,2.6399,2.6396,2.6384,2.6376,2.6389,2.6375,2.6385,2.6385,2.6389,2.6389,2.6423,2.6387,2.6387,2.6387,2.6387,0,2.646,2.6466,2.6448,2.6451,2.6457,2.6443,2.6449,2.6442,2.6435,2.6437,2.6422,2.6423,2.6407,2.6407,2.6398,2.6402,2.6401,2.6397,2.6394,2.6398,2.6399,2.6398,2.6397,2.6388,2.6388,2.6388,2.6387,0,2.6492,2.648,2.6484,2.6472,2.6469,2.6474,2.6464,2.6466,2.6457,2.6459,2.6459,2.6446,2.6444,2.6432,2.6428,2.6422,2.643,2.6425,2.6433,2.6431,2.6442,2.6441,2.6477,2.6481,2.6442,2.6443,2.6443,0,2.6509,2.6513,2.6501,2.6501,2.6497,2.6497,2.6495,2.6481,2.648,2.6472,2.6476,2.6473,2.6471,2.647,2.646,2.6457,2.6452,2.6464,2.6451,2.6455,2.6452,2.6453,2.6453,2.6467,2.6468,2.6468,2.6469,0,2.6541,2.6535,2.6533,2.653,2.6528,2.6525,2.652,2.6521,2.6505,2.6505,2.6504,2.6502,2.6498,2.6496,2.6491,2.6486,2.6475,2.6473,2.6475,2.648,2.6484,2.6483,2.6441,2.6472,2.6472,2.6472,2.6471,2.6471,2.6566,2.6569,2.6561,2.656,2.6555,2.6551,2.6553,2.6545,2.6543,2.6539,2.6531,2.6531,2.6524,2.6516,2.6512,2.6512,2.6505,2.6508,2.6509,2.651,2.6513,2.6484,2.6511,2.6511,2.6511,2.6511,2.651,0,2.6598,2.6592,2.6591,2.6585,2.6584,2.6574,2.6568,2.6568,2.6568,2.6563,2.656,2.6559,2.6557,2.6547,2.6544,2.6546,2.6541,2.6545,2.6546,2.6545,2.6519,2.6517,2.655,2.655,2.655,2.655,2.655,2.655,2.6614,2.6618,2.6612,2.6614,2.6608,2.6608,2.6606,2.6602,2.6598,2.6597,2.6595,2.6588,2.6581,2.6577,2.6575,2.6572,2.6572,2.6579,2.6574,2.655,2.6546,2.6543,2.6542,2.6578,2.6578,2.66,2.66,2.66]}]]